K5GHS-1 Weather Reports


Display with metric or nautical units.
time (UTC)temp
F
wind
direction
speed
MPH
gust
MPH
rain 1hr
in
rain 24hr
in
rain mn
in
humidity
%
barometer
mb
20260507081849 53 79 0.0 0.0 0.00 0.00 0.00 91 1015.9
20260507081345 53 75 0.0 0.0 0.00 0.00 0.00 91 1015.9
20260507080842 53 75 0.0 0.0 0.00 0.00 0.00 91 1015.8
20260507080338 53 78 0.0 0.0 0.00 0.00 0.00 91 1015.7
20260507075834 53 67 0.0 0.0 0.00 0.00 0.00 91 1015.7
20260507075330 54 76 0.0 0.0 0.00 0.00 0.00 91 1015.7
20260507074826 54 71 0.0 1.0 0.00 0.00 0.00 91 1015.7
20260507074324 54 71 0.0 0.0 0.00 0.00 0.00 91 1015.6
20260507073821 54 72 0.0 0.0 0.00 0.00 0.00 91 1015.7
20260507073318 54 73 0.0 0.0 0.00 0.00 0.00 91 1015.8
20260507072815 54 74 0.0 1.0 0.00 0.00 0.00 91 1015.6
20260507072312 54 76 0.0 0.0 0.00 0.00 0.00 91 1015.8
20260507071810 54 74 0.0 0.0 0.00 0.00 0.00 90 1015.8
20260507071306 54 72 0.0 0.0 0.00 0.00 0.00 90 1015.8
20260507070803 54 72 0.0 0.0 0.00 0.00 0.00 90 1015.9
20260507070300 54 75 0.0 0.0 0.00 0.00 0.00 90 1016.0
20260507065757 54 76 0.0 0.0 0.00 0.00 0.00 90 1016.1
20260507065253 54 76 0.0 0.0 0.00 0.00 0.00 90 1015.9
20260507064750 55 77 0.0 0.0 0.00 0.00 0.00 90 1015.9
20260507064249 55 70 0.0 0.0 0.00 0.00 0.00 90 1015.8
20260507063747 55 77 0.0 0.0 0.00 0.00 0.00 90 1015.9
20260507063243 55 74 0.0 0.0 0.00 0.00 0.00 90 1015.6
20260507062740 55 75 0.0 1.0 0.00 0.00 0.00 90 1015.7
20260507062237 55 81 0.0 0.0 0.00 0.00 0.00 89 1015.4
20260507061735 55 73 0.0 0.0 0.00 0.00 0.00 89 1015.4
20260507061233 55 77 0.0 1.0 0.00 0.00 0.00 89 1015.4
20260507060731 55 82 0.0 0.0 0.00 0.00 0.00 89 1015.1
20260507060227 55 82 0.0 0.0 0.00 0.00 0.00 89 1015.2
20260507055723 55 86 1.0 2.0 0.00 0.00 0.00 89 1015.2
20260507055219 55 82 0.0 1.0 0.00 0.00 0.00 89 1015.1
20260507054715 55 74 0.0 0.0 0.00 0.00 0.00 88 1015.3
20260507054213 56 81 0.0 0.0 0.00 0.00 0.00 88 1015.6
20260507053710 56 75 0.0 0.0 0.00 0.00 0.00 87 1015.3
20260507053208 56 73 0.0 1.0 0.00 0.00 0.00 87 1015.3
20260507052706 56 87 0.0 0.0 0.00 0.00 0.00 86 1015.5
20260507052202 56 83 0.0 1.0 0.00 0.00 0.00 86 1015.3
20260507051700 56 78 0.0 0.0 0.00 0.00 0.00 85 1015.5
20260507051156 57 75 0.0 0.0 0.00 0.00 0.00 85 1015.5
20260507050653 57 75 0.0 1.0 0.00 0.00 0.00 85 1015.5
20260507050150 57 72 0.0 1.0 0.00 0.00 0.00 84 1015.6
20260507045647 57 74 0.0 1.0 0.00 0.10 0.10 83 1015.4
20260507045143 57 75 0.0 2.0 0.00 0.10 0.10 83 1015.6
20260507044640 57 78 0.0 0.0 0.00 0.10 0.10 82 1015.5
20260507044137 58 73 0.0 1.0 0.00 0.10 0.10 82 1015.5
20260507043633 58 77 0.0 0.0 0.00 0.10 0.10 81 1015.5
20260507043131 58 73 0.0 1.0 0.00 0.10 0.10 81 1015.6
20260507042627 58 77 0.0 0.0 0.00 0.10 0.10 81 1015.9
20260507042122 58 72 0.0 0.0 0.00 0.10 0.10 80 1015.7
20260507041619 58 77 0.0 0.0 0.00 0.10 0.10 80 1015.5
20260507041116 58 89 0.0 1.0 0.00 0.10 0.10 79 1015.7
20260507040613 58 64 1.0 1.0 0.00 0.10 0.10 79 1015.8
20260507040109 58 72 0.0 1.0 0.00 0.10 0.10 79 1015.7
20260507035605 58 65 0.0 1.0 0.00 0.10 0.10 79 1015.6
20260507035101 59 86 0.0 1.0 0.00 0.10 0.10 79 1016.1
20260507034558 59 72 0.0 1.0 0.00 0.10 0.10 78 1016.1
20260507034056 59 75 0.0 1.0 0.00 0.10 0.10 78 1016.2
20260507033554 59 76 1.0 1.0 0.00 0.10 0.10 78 1015.8
20260507033051 59 67 0.0 6.0 0.00 0.10 0.10 78 1015.6
20260507032548 59 69 0.0 3.0 0.00 0.10 0.10 77 1015.8
20260507032044 59 68 0.0 3.0 0.00 0.10 0.10 77 1015.9
20260507031541 59 71 0.0 1.0 0.00 0.10 0.10 78 1015.8
20260507031038 59 66 0.0 1.0 0.00 0.10 0.10 78 1015.6
20260507030534 59 76 0.0 2.0 0.00 0.10 0.10 78 1015.6
20260507030032 59 95 1.0 1.0 0.00 0.10 0.10 77 1015.4
20260507025529 59 68 0.0 1.0 0.00 0.10 0.10 78 1015.5
20260507025027 59 71 0.0 1.0 0.00 0.10 0.10 79 1015.4
20260507024524 59 61 1.0 3.0 0.00 0.10 0.10 80 1015.2
20260507024021 59 68 1.0 2.0 0.00 0.10 0.10 82 1014.9
20260507023516 59 72 0.0 1.0 0.00 0.10 0.10 83 1015.1
20260507023015 59 74 0.0 2.0 0.00 0.10 0.10 82 1014.9
20260507022511 59 75 0.0 0.0 0.00 0.10 0.10 82 1014.7
20260507022006 59 71 1.0 1.0 0.00 0.10 0.10 82 1014.6
20260507021503 59 63 0.0 0.0 0.00 0.10 0.10 83 1014.3
20260507020959 59 53 0.0 0.0 0.00 0.10 0.10 83 1014.6
20260507020456 59 83 0.0 0.0 0.00 0.10 0.10 83 1014.6
20260507015953 59 72 0.0 1.0 0.00 0.10 0.10 83 1014.1
20260507015452 59 74 0.0 0.0 0.00 0.10 0.10 82 1014.1
20260507014949 59 74 1.0 2.0 0.00 0.10 0.10 82 1013.9
20260507014445 59 71 0.0 1.0 0.00 0.10 0.10 83 1013.8
20260507013941 59 61 1.0 3.0 0.00 0.10 0.10 83 1013.8
20260507013438 59 77 0.0 1.0 0.00 0.10 0.10 83 1013.6
20260507012935 59 74 0.0 0.0 0.00 0.10 0.10 83 1013.5
20260507012432 59 69 0.0 0.0 0.00 0.10 0.10 83 1013.6
20260507011928 60 73 0.0 1.0 0.00 0.10 0.10 83 1013.2
20260507011426 60 96 0.0 1.0 0.00 0.10 0.10 82 1013.5
20260507010920 60 82 0.0 2.0 0.00 0.10 0.10 82 1013.4
20260507010415 60 49 0.0 1.0 0.00 0.10 0.10 82 1013.6
20260507005913 60 75 0.0 1.0 0.00 0.10 0.10 82 1013.4
20260507005409 60 30 1.0 2.0 0.00 0.10 0.10 82 1013.3
20260507004906 60 70 0.0 1.0 0.00 0.10 0.10 82 1013.2
20260507004403 60 73 0.0 1.0 0.00 0.10 0.10 82 1012.8
20260507003900 60 72 0.0 0.0 0.00 0.10 0.10 82 1013.1
20260507003355 60 38 1.0 3.0 0.00 0.10 0.10 81 1013.0
20260507002851 60 77 0.0 1.0 0.00 0.10 0.10 81 1013.1
20260507002347 60 68 0.0 2.0 0.00 0.10 0.10 81 1012.5
20260507001844 60 76 0.0 1.0 0.00 0.10 0.10 81 1012.5
20260507001341 60 64 0.0 1.0 0.00 0.10 0.10 81 1012.7
20260507000838 60 76 0.0 1.0 0.00 0.10 0.10 80 1012.7
20260507000335 60 74 1.0 1.0 0.00 0.10 0.10 80 1012.6
20260506235830 60 70 0.0 2.0 0.00 0.10 0.10 80 1012.5
20260506235326 60 71 0.0 2.0 0.00 0.10 0.10 80 1012.5
20260506234823 61 70 0.0 0.0 0.00 0.10 0.10 80 1012.5
20260506234321 61 97 0.0 1.0 0.00 0.10 0.10 80 1012.6
20260506233818 61 67 1.0 2.0 0.00 0.10 0.10 79 1012.4
20260506233314 61 79 0.0 1.0 0.00 0.10 0.10 79 1012.4
20260506232811 61 63 0.0 1.0 0.00 0.10 0.10 79 1012.1
20260506232306 61 64 1.0 2.0 0.00 0.10 0.10 78 1012.1
20260506231803 61 155 0.0 1.0 0.00 0.10 0.10 79 1012.2
20260506231301 61 75 0.0 2.0 0.00 0.10 0.10 78 1012.0
20260506230758 61 77 1.0 1.0 0.00 0.10 0.10 78 1012.2
20260506230249 61 72 0.0 1.0 0.00 0.10 0.10 78 1012.2
20260506225746 61 71 1.0 1.0 0.00 0.10 0.10 78 1012.1
20260506225243 61 73 0.0 1.0 0.00 0.10 0.10 78 1012.1
20260506224739 62 73 0.0 1.0 0.00 0.10 0.10 77 1012.4
20260506224237 62 69 0.0 1.0 0.00 0.10 0.10 77 1012.2
20260506223733 61 76 0.0 2.0 0.00 0.10 0.10 78 1011.8
20260506223228 61 74 0.0 3.0 0.00 0.10 0.10 78 1012.0
20260506222726 61 74 0.0 1.0 0.00 0.10 0.10 78 1012.0
20260506222221 61 72 0.0 1.0 0.00 0.10 0.10 77 1012.1
20260506221719 61 60 0.0 1.0 0.00 0.10 0.10 77 1012.0
20260506221217 61 41 1.0 2.0 0.00 0.10 0.10 77 1011.9
20260506220714 61 63 0.0 1.0 0.00 0.10 0.10 77 1011.7
20260506220208 61 74 0.0 2.0 0.00 0.10 0.10 77 1011.7
20260506215705 61 71 0.0 1.0 0.00 0.10 0.10 77 1011.6
20260506215201 61 68 1.0 2.0 0.00 0.10 0.10 77 1011.7
20260506214658 61 80 1.0 2.0 0.00 0.10 0.10 77 1011.5
20260506214155 61 65 0.0 5.0 0.00 0.10 0.10 76 1011.9
20260506213654 62 55 1.0 1.0 0.00 0.10 0.10 75 1012.1
20260506213150 62 75 0.0 1.0 0.00 0.10 0.10 75 1012.1
20260506212647 62 71 0.0 0.0 0.00 0.10 0.10 76 1012.0
20260506212142 62 72 0.0 3.0 0.00 0.10 0.10 76 1012.0
20260506211638 62 64 0.0 2.0 0.00 0.10 0.10 76 1011.9
20260506211135 61 67 0.0 2.0 0.00 0.10 0.10 76 1011.9
20260506210632 61 234 0.0 2.0 0.00 0.10 0.10 76 1012.1
20260506210129 61 77 0.0 1.0 0.00 0.10 0.10 76 1012.1
20260506205626 61 59 0.0 1.0 0.00 0.10 0.10 76 1011.9
20260506205120 61 68 0.0 1.0 0.00 0.10 0.10 76 1012.1
20260506204619 61 78 0.0 1.0 0.00 0.10 0.10 75 1012.3
20260506204115 61 77 0.0 1.0 0.00 0.10 0.10 75 1011.9
20260506203614 61 69 0.0 2.0 0.00 0.10 0.10 75 1012.4
20260506203110 61 61 0.0 1.0 0.00 0.10 0.10 75 1012.4
20260506202608 61 69 0.0 0.0 0.00 0.10 0.10 76 1012.3
20260506202104 61 59 0.0 2.0 0.00 0.10 0.10 75 1012.2
20260506201601 62 69 0.0 0.0 0.00 0.10 0.10 76 1012.4
20260506201058 62 68 0.0 2.0 0.00 0.10 0.10 76 1012.5
20260506200554 62 72 0.0 1.0 0.00 0.10 0.10 78 1012.4
20260506200051 61 69 0.0 1.0 0.00 0.10 0.10 79 1012.2
20260506195547 60 72 0.0 1.0 0.00 0.10 0.10 78 1012.8
20260506195044 60 70 0.0 0.0 0.00 0.10 0.10 79 1013.2
20260506194542 60 70 0.0 0.0 0.00 0.10 0.10 79 1013.0
20260506194038 60 80 0.0 0.0 0.00 0.10 0.10 80 1013.1
20260506193536 60 71 0.0 0.0 0.00 0.10 0.10 80 1013.1
20260506193033 59 79 0.0 0.0 0.00 0.10 0.10 80 1012.6
20260506192529 59 73 0.0 0.0 0.00 0.10 0.10 80 1012.8
20260506192025 59 69 0.0 1.0 0.00 0.10 0.10 80 1013.1
20260506191522 59 69 0.0 0.0 0.00 0.10 0.10 81 1013.0
20260506191018 59 77 0.0 0.0 0.00 0.10 0.10 81 1013.2
20260506190515 59 74 0.0 1.0 0.00 0.10 0.10 81 1013.0
20260506190013 59 74 0.0 1.0 0.00 0.10 0.10 82 1012.8
20260506185510 58 71 0.0 0.0 0.00 0.10 0.10 82 1012.6
20260506185006 58 65 1.0 2.0 0.00 0.10 0.10 82 1012.0
20260506184503 58 78 0.0 2.0 0.00 0.10 0.10 82 1012.1
20260506184001 58 86 0.0 1.0 0.00 0.10 0.10 83 1011.8
20260506183456 58 71 2.0 2.0 0.00 0.10 0.10 83 1011.8
20260506182953 58 70 0.0 1.0 0.00 0.10 0.10 83 1011.7
20260506182450 58 67 0.0 1.0 0.00 0.10 0.10 83 1011.6
20260506181947 58 55 1.0 2.0 0.00 0.10 0.10 84 1011.6
20260506181446 58 74 1.0 3.0 0.00 0.10 0.10 86 1011.7
20260506180942 57 70 0.0 2.0 0.00 0.10 0.10 88 1011.7
20260506180438 56 68 0.0 1.0 0.00 0.10 0.10 88 1011.9
20260506175935 56 78 0.0 0.0 0.00 0.10 0.10 89 1011.9
20260506175432 55 73 1.0 2.0 0.00 0.10 0.10 89 1012.2
20260506174929 55 66 1.0 3.0 0.00 0.10 0.10 90 1012.2
20260506174427 55 71 1.0 2.0 0.00 0.10 0.10 90 1011.8
20260506173923 55 74 1.0 3.0 0.00 0.10 0.10 91 1011.9
20260506173420 54 71 0.0 2.0 0.00 0.10 0.10 91 1012.0
20260506172917 54 73 0.0 2.0 0.00 0.10 0.10 91 1012.1
20260506172414 54 90 0.0 7.0 0.00 0.10 0.10 92 1012.2
20260506171911 54 69 0.0 0.0 0.00 0.10 0.10 92 1012.4
20260506171408 54 79 0.0 1.0 0.00 0.10 0.10 92 1012.4
20260506170907 54 70 0.0 2.0 0.00 0.10 0.10 92 1012.2
20260506170402 54 70 1.0 2.0 0.00 0.10 0.10 92 1012.5
20260506165901 54 73 1.0 2.0 0.00 0.10 0.10 92 1012.7
20260506165359 54 71 0.0 3.0 0.00 0.10 0.10 92 1013.2
20260506164849 54 71 0.0 2.0 0.00 0.10 0.10 92 1013.5
20260506164346 54 66 0.0 0.0 0.00 0.10 0.10 92 1013.7
20260506163844 54 80 0.0 1.0 0.00 0.10 0.10 92 1014.1
20260506163338 54 70 0.0 0.0 0.00 0.10 0.10 92 1013.7
20260506162833 54 75 0.0 0.0 0.00 0.10 0.10 92 1013.6
20260506162331 54 73 0.0 0.0 0.00 0.10 0.10 92 1013.5
20260506161829 54 73 0.0 2.0 0.00 0.10 0.10 92 1013.1
20260506161325 54 76 0.0 1.0 0.00 0.10 0.10 92 1012.5
20260506160818 54 70 1.0 2.0 0.00 0.10 0.10 91 1012.0
20260506160314 55 79 0.0 2.0 0.00 0.10 0.10 91 1011.4
20260506155813 54 72 0.0 1.0 0.07 0.10 0.10 90 1012.2
20260506155309 54 245 2.0 5.0 0.19 0.10 0.10 89 1012.6
20260506153422 54 62 0.0 3.0 0.00 0.00 0.00 86 1014.7
20260506152919 54 71 1.0 1.0 0.00 0.00 0.00 85 1014.0
20260506152416 55 69 0.0 2.0 0.00 0.00 0.00 84 1013.6
20260506151915 55 71 1.0 2.0 0.00 0.00 0.00 84 1013.3
20260506151411 55 72 1.0 2.0 0.00 0.00 0.00 83 1013.1
20260506150909 54 64 0.0 1.0 0.00 0.00 0.00 83 1012.6
20260506150405 54 77 0.0 1.0 0.00 0.00 0.00 83 1013.1
20260506145902 54 74 0.0 0.0 0.00 0.00 0.00 83 1013.2
20260506145358 54 73 1.0 2.0 0.00 0.00 0.00 83 1013.1
20260506144856 54 72 1.0 3.0 0.00 0.00 0.00 82 1012.4
20260506144352 54 68 1.0 3.0 0.00 0.00 0.00 82 1013.2
20260506143850 54 71 0.0 2.0 0.00 0.00 0.00 82 1013.2
20260506143347 54 44 2.0 2.0 0.00 0.00 0.00 82 1013.1
20260506142846 55 84 0.0 1.0 0.00 0.00 0.00 82 1013.0
20260506142343 54 71 0.0 1.0 0.00 0.00 0.00 83 1012.7
20260506141841 54 72 0.0 1.0 0.00 0.00 0.00 83 1012.4
20260506141339 54 69 2.0 2.0 0.00 0.00 0.00 83 1012.3
20260506140837 54 69 0.0 1.0 0.00 0.00 0.00 83 1012.4
20260506140333 54 64 0.0 1.0 0.00 0.00 0.00 83 1012.2
20260506135830 54 57 1.0 2.0 0.00 0.00 0.00 83 1012.2
20260506135327 54 66 1.0 2.0 0.00 0.00 0.00 83 1012.2
20260506134823 54 65 1.0 2.0 0.00 0.00 0.00 83 1011.7
20260506134320 54 70 1.0 3.0 0.00 0.00 0.00 83 1012.0
20260506133817 54 67 0.0 1.0 0.00 0.00 0.00 84 1011.9
20260506133314 53 28 0.0 2.0 0.00 0.00 0.00 84 1012.1
20260506132810 53 77 0.0 3.0 0.00 0.00 0.00 85 1011.8
20260506132308 53 72 1.0 6.0 0.00 0.00 0.00 86 1011.6
20260506131806 53 102 1.0 1.0 0.00 0.00 0.00 87 1011.4
20260506131301 53 82 1.0 2.0 0.00 0.00 0.00 87 1011.6
20260506130758 53 70 0.0 2.0 0.00 0.00 0.00 87 1011.7
20260506130255 53 71 0.0 0.0 0.00 0.00 0.00 87 1011.4
20260506125753 53 61 0.0 3.0 0.00 0.00 0.00 86 1011.5
20260506125251 53 83 2.0 3.0 0.00 0.00 0.00 86 1011.4
20260506124749 53 68 0.0 1.0 0.00 0.00 0.00 86 1011.4
20260506124246 53 68 1.0 1.0 0.00 0.00 0.00 86 1011.4
20260506123743 53 71 0.0 1.0 0.00 0.00 0.00 86 1011.1
20260506123242 53 70 0.0 2.0 0.00 0.00 0.00 85 1011.3
20260506122738 53 69 0.0 3.0 0.00 0.00 0.00 85 1011.5
20260506122236 53 117 1.0 1.0 0.00 0.00 0.00 85 1011.4
20260506121734 53 72 0.0 1.0 0.00 0.00 0.00 85 1011.1
20260506121230 53 66 0.0 2.0 0.00 0.00 0.00 85 1011.0
20260506120727 53 82 0.0 1.0 0.00 0.00 0.00 85 1011.1
20260506120225 53 68 2.0 3.0 0.00 0.00 0.00 84 1011.0
20260506115723 53 57 1.0 1.0 0.00 0.00 0.00 84 1010.9
20260506115221 53 68 0.0 2.0 0.00 0.00 0.00 84 1010.8
20260506114719 53 72 1.0 2.0 0.00 0.00 0.00 84 1011.1
20260506114216 54 71 0.0 3.0 0.00 0.00 0.00 83 1010.8
20260506113714 54 38 1.0 6.0 0.00 0.00 0.00 83 1010.3
20260506113211 54 69 0.0 7.0 0.00 0.00 0.00 82 1010.5
20260506112707 55 71 0.0 0.0 0.00 0.00 0.00 81 1010.4
20260506112205 55 76 0.0 1.0 0.00 0.00 0.00 81 1010.5
20260506111703 55 66 0.0 1.0 0.00 0.00 0.00 81 1010.2
20260506111201 55 117 1.0 2.0 0.00 0.00 0.00 81 1010.2
20260506110657 55 72 0.0 2.0 0.00 0.00 0.00 80 1010.4
20260506110155 55 70 0.0 1.0 0.00 0.00 0.00 80 1010.1
20260506105651 55 66 1.0 1.0 0.00 0.00 0.00 79 1010.0
20260506105148 55 62 0.0 2.0 0.00 0.00 0.00 79 1010.1
20260506104646 55 69 0.0 3.0 0.00 0.00 0.00 78 1009.9
20260506104144 55 59 2.0 3.0 0.00 0.00 0.00 78 1009.9
20260506103641 55 63 2.0 5.0 0.00 0.00 0.00 77 1009.7
20260506103138 56 58 0.0 1.0 0.00 0.00 0.00 77 1009.5
20260506102636 55 77 0.0 2.0 0.00 0.00 0.00 77 1009.4
20260506102133 56 90 1.0 2.0 0.00 0.00 0.00 77 1009.6
20260506101629 56 71 0.0 1.0 0.00 0.00 0.00 76 1009.3
20260506101126 56 70 0.0 1.0 0.00 0.00 0.00 76 1009.2
20260506100625 56 69 1.0 1.0 0.00 0.00 0.00 76 1009.2
20260506100122 56 72 0.0 0.0 0.00 0.00 0.00 76 1009.1
20260506095621 56 70 0.0 1.0 0.00 0.00 0.00 76 1009.1
20260506095117 56 40 2.0 5.0 0.00 0.00 0.00 76 1008.9
20260506094615 56 62 0.0 3.0 0.00 0.00 0.00 76 1009.1
20260506094112 56 72 0.0 1.0 0.00 0.00 0.00 76 1009.2
20260506093611 56 77 0.0 1.0 0.00 0.00 0.00 76 1009.0
20260506093108 56 74 0.0 2.0 0.00 0.00 0.00 76 1008.9
20260506092605 57 61 0.0 1.0 0.00 0.00 0.00 75 1008.8
20260506092102 57 68 0.0 1.0 0.00 0.00 0.00 75 1009.0
20260506091600 57 74 0.0 0.0 0.00 0.00 0.00 75 1008.9
20260506091058 57 70 0.0 0.0 0.00 0.00 0.00 75 1008.9
20260506090555 57 69 0.0 1.0 0.00 0.00 0.00 75 1008.7
20260506090051 57 72 0.0 1.0 0.00 0.00 0.00 75 1008.5
20260506085548 57 72 0.0 1.0 0.00 0.00 0.00 76 1008.5
20260506085044 58 71 1.0 2.0 0.00 0.00 0.00 76 1008.5
20260506084542 58 56 0.0 1.0 0.00 0.00 0.00 76 1008.7
20260506084038 58 63 0.0 2.0 0.00 0.00 0.00 76 1008.5
20260506083535 58 58 0.0 1.0 0.00 0.00 0.00 76 1008.3
20260506083032 58 67 0.0 2.0 0.00 0.00 0.00 76 1008.3
20260506082529 58 325 3.0 5.0 0.00 0.00 0.00 76 1008.5